User: anonymous   Login
Location: Innerarity Island Observatory
(30.3139°N, 87.4867°W)
Time: 23:01:55
(UTC-05:00)
Language:

FO-29 - Orbit

View from above orbital plane
View from above orbital plane
View from above satellite
View from above satellite

Ground track
Ground track

The orbit data is extracted from the following two-line orbital elements,

1 24278U 96046B   17290.61718348 +.00000008 +00000-0 +43740-4 0  9995
2 24278 098.5421 157.4700 0350831 020.2629 341.2046 13.53079718045181
Epoch (UTC): 17 October 2017 14:48:44
Eccentricity: 0.0350831
inclination: 98.5421°
perigee height: 800 km
apogee height: 1322 km
right ascension of ascending node: 157.4700°
argument of perigee: 20.2629°
revolutions per day: 13.53079718
mean anomaly at epoch: 341.2046°
orbit number at epoch: 4518

The dashed part of the orbit path shows where the satellite is in the earth's shadow,  

DLR